Powrót do katalogu

ISS

ZVEZDA

AktywnyNaukaVLEO
NORAD 26400·PAYLOAD·🇷🇺 Russia

Wystrzelony Jul 12, 2000 z Baikonur Cosmodrome

Loading…

Następne Przeloty (najbliższe 24 godziny)

TLE

ŚwieżeSource: Space-Track

Epoka: Sep 14, 2026, 08:04 UTC

1 26400U 00037A   26257.33674862  .00004921  00000-0  97059-4 0  9993
2 26400  51.6309 218.8707 0004933 140.1115 220.0237 15.49109585586386

Śledź ISS w czasie rzeczywistym z AllMySat

Download on the App Store